Weather History for Lewiston, ID

Change the Weather History Date:

Thursday, July 25, 2013

  Actual Average Record
Temperature  
Mean Temperature 83 °F 76 °F  
Max Temperature 102 °F 92 °F 113 °F (1928)
Min Temperature 63 °F 61 °F 48 °F (1897)
Degree Days  
Heating Degree Days 0 0  
Month to date heating degree days 0 4  
Since 1 June heating degree days 44 74  
Since 1 July heating degree days 0 4  
Cooling Degree Days 18 11  
Month to date cooling degree days 353 228  
Year to date cooling degree days 530 358  
Since 1 June cooling degree days 473 326  
Growing Degree Days 33 (Base 50)    
Moisture  
Dew Point 34 °F    
Average Humidity 26    
Maximum Humidity 44    
Minimum Humidity 7    
Precipitation  
Precipitation 0.00 in 0.02 in 0.20 in (1921)
Month to date precipitation 0.09 0.56  
Year to date precipitation 5.89 7.74  
Snow  
Snow 0.00 in 0.00 in 0.00 in (1995)
Month to date snowfall 0.0 0.0  
Since 1 June snowfall 0.0 0.0  
Since 1 July snowfall 0.0 0.0  
Snow Depth 0.00 in    
Sea Level Pressure  
Sea Level Pressure 29.93 in    
Wind  
Wind Speed 4 mph (West)    
Max Wind Speed 14 mph    
Max Gust Speed 18 mph    
Visibility 10 miles    
Events      
T = Trace of Precipitation, MM = Missing Value Source: NWS Daily Summary

Daily Weather History Graph

Daily Weather History Graph

Search for Another Location

Airport:

Trip Planner

Search our weather history database for the weather conditions in past years. The results will help you decide how hot, cold, wet, or windy it might be!

Date:

Astronomy

Jul. 25, 2013 Rise Set
Actual Time 5:21 AM PDT 8:26 PM PDT
Civil Twilight 4:45 AM PDT 9:02 PM PDT
Nautical Twilight 3:59 AM PDT 9:48 PM PDT
Astronomical Twilight 3:02 AM PDT 10:44 PM PDT
Moon 9:51 PM PDT (7/25) 9:12 AM PDT (7/25)
Length of Visible Light 16h 17m
Length of Day
15h 05m
Waning Gibbous, 87% of the Moon is Illuminated
Jul 25
Waning Gibbous
Jul 29
Last Quarter
Aug 6
New
Aug 14
First Quarter
Aug 20
Full

Hourly Weather History & Observations

Time (PDT) Temp. Dew Point Humidity Pressure Visibility Wind Dir Wind Speed Gust Speed Precip Events Conditions
12:56 AM 75.9 °F 37.0 °F 24% 29.89 in 10.0 mi South 5.8 mph - N/A   Clear
1:56 AM 72.0 °F 36.0 °F 27% 29.90 in 10.0 mi SE 4.6 mph - N/A   Clear
2:56 AM 72.0 °F 37.0 °F 28% 29.91 in 10.0 mi Calm Calm - N/A   Clear
3:56 AM 70.0 °F 37.0 °F 30% 29.92 in 10.0 mi SSW 3.5 mph - N/A   Clear
4:56 AM 66.9 °F 39.0 °F 36% 29.94 in 10.0 mi Calm Calm - N/A   Clear
5:56 AM 64.9 °F 37.9 °F 37% 29.95 in 10.0 mi SE 4.6 mph - N/A   Clear
6:56 AM 70.0 °F 46.0 °F 42% 29.97 in 10.0 mi ENE 4.6 mph - N/A   Clear
7:56 AM 73.0 °F 46.0 °F 38% 29.98 in 10.0 mi Variable 4.6 mph - N/A   Clear
8:56 AM 75.9 °F 46.0 °F 35% 29.99 in 10.0 mi Variable 3.5 mph - N/A   Clear
9:56 AM 81.0 °F 45.0 °F 28% 29.98 in 10.0 mi NE 4.6 mph - N/A   Clear
10:56 AM 87.1 °F 43.0 °F 21% 29.97 in 10.0 mi Calm Calm - N/A   Clear
11:56 AM 91.0 °F 42.1 °F 18% 29.96 in 10.0 mi Calm Calm - N/A   Clear
12:56 PM 91.9 °F 39.9 °F 16% 29.94 in 10.0 mi Calm Calm - N/A   Clear
1:56 PM 98.1 °F 36.0 °F 11% 29.93 in 10.0 mi NW 8.1 mph - N/A   Clear
2:56 PM 99.0 °F 35.1 °F 11% 29.91 in 10.0 mi NNW 5.8 mph - N/A   Clear
3:56 PM 99.0 °F 34.0 °F 10% 29.89 in 10.0 mi Calm Calm - N/A   Clear
4:56 PM 100.9 °F 32.0 °F 9% 29.89 in 10.0 mi NNW 9.2 mph 18.4 mph N/A   Clear
5:56 PM 100.9 °F 30.0 °F 8% 29.88 in 10.0 mi NW 6.9 mph - N/A   Clear
6:56 PM 99.0 °F 25.0 °F 7% 29.88 in 10.0 mi WNW 12.7 mph - N/A   Clear
7:56 PM 93.9 °F 23.0 °F 8% 29.89 in 10.0 mi NW 6.9 mph - N/A   Clear
8:56 PM 88.0 °F 23.0 °F 9% 29.91 in 10.0 mi West 4.6 mph - N/A   Clear
9:56 PM 87.1 °F 21.0 °F 9% 29.92 in 10.0 mi Variable 3.5 mph - N/A   Clear
10:56 PM 81.0 °F 21.9 °F 11% 29.94 in 10.0 mi South 3.5 mph - N/A   Clear
11:56 PM 77.0 °F 24.1 °F 14% 29.94 in 10.0 mi SW 3.5 mph - N/A   Clear